Location: Dvur Kralove nad Labem
(50.4330°N, 15.8170°E)
Time: 15:05:00
(UTC+02:00)

ISS - Pass Details

Date: 23 May 2018
Orbit: 402 x 407 km, 51.6° (Epoch: 24 May)

Event Time Altitude Azimuth Distance (km) Brightness Sun altitude
Rises 00:36:21 0° 274° (W) 2,319 0.1 -18.9°
Reaches altitude 10° 00:38:26 10° 277° (W) 1,459 -0.9 -19.0°
Maximum altitude 00:41:42 69° 1° (N) 436 -3.6 -19.0°
Drops below altitude 10° 00:44:57 10° 86° (E) 1,457 -1.0 -19.0°
Sets 00:47:02 0° 89° (E) 2,316 0.0 -19.0°
